STARS-C

Last updated on Sat Mar 03 2018 00:15:06 GMT+0000 (Coordinated Universal Time)

1 41895U 98067KR 18061.52581171 .12025536 12682-4 40347-3 0 9991 2 41895 51.6547 142.6546 0011212 346.6197 16.6343 16.43666377 68734

Satellite not in orbit